User: anonymous   Login
Location: Mascot Post Office (historical)
(40.2645°N, 99.5462°W)
Time: 22:52:00
(UTC+00:00)
Language:

Nadezhda 4 Rocket - Orbit

View from above orbital plane
View from above orbital plane
View from above satellite
View from above satellite

Ground track
Ground track

The orbit data is extracted from the following two-line orbital elements,

1 23180U 94041B   20263.15086811 -.00000012 +00000-0 -27488-4 0  9993
2 23180 082.9445 125.5502 0029873 126.4467 348.7902 13.77984620316524
Epoch (UTC): 19 September 2020 03:37:15
Eccentricity: 0.0029873
inclination: 82.9445°
perigee height: 949 km
apogee height: 993 km
right ascension of ascending node: 125.5502°
argument of perigee: 126.4467°
revolutions per day: 13.77984620
mean anomaly at epoch: 348.7902°
orbit number at epoch: 31652

The dashed part of the orbit path shows where the satellite is in the earth's shadow,  

DLR